User: anonymous   Login
Location: Plymouth
(43.7570°N, 71.6890°W)
Time: 03:12:10
(UTC-04:00)
Language:

Meteor 1-28 Rocket - Orbit

View from above orbital plane
View from above orbital plane
View from above satellite
View from above satellite

Ground track
Ground track

The orbit data is extracted from the following two-line orbital elements,

1 10114U 77057B   15124.17525655  .00001727  00000-0  95223-4 0  9994
2 10114 097.2335 334.2853 0015671 140.4116 219.8264 15.15135068 66125
Epoch (UTC): 04 May 2015 04:12:22
Eccentricity: 0.0015671
inclination: 97.2335°
perigee height: 510 km
apogee height: 531 km
right ascension of ascending node: 334.2853°
argument of perigee: 140.4116°
revolutions per day: 15.15135068
mean anomaly at epoch: 219.8264°
orbit number at epoch: 6612

The dashed part of the orbit path shows where the satellite is in the earth's shadow,  

DLR